Location: Albany
(35.0000°S, 118.0000°E)
Time: 03:46:54
(UTC-04:00)

Amateur Radio Satellites - All Passes

Search period start: 25 October 2014 03:16
Search period end: 26 October 2014 03:16
Location: Albany, 35.0000°S, 118.0000°E

Satellite Date Start Highest point End Downlink Frequencies (MHz)
Time Altitude Azimuth
ITAMSAT 1 25 Oct 03:18:10 03:22:40 30° 249° (WSW) 03:27:09 435.822 SSB
RS-15 25 Oct 03:24:36 03:30:53 15° 166° (SSE) 03:37:03 29.354 - 29.394 USB, Beacon 29.352 USB
OPAL 25 Oct 03:37:39 03:41:41 25° 115° (ESE) 03:45:48 ?
Gurwin Techsat 1B 25 Oct 03:38:27 03:43:22 37° 250° (WSW) 03:48:14 435.225 FM
TMSAT-1 25 Oct 03:49:33 03:54:31 40° 251° (WSW) 03:59:26 436.925 FM
AO-27 25 Oct 04:06:40 04:07:52 11° 241° (WSW) 04:09:04 436.795 MHz FM
AO-7 25 Oct 04:22:41 04:31:05 70° 75° (ENE) 04:39:20 29.400 - 29.500 MHz
JAS-2 25 Oct 04:23:49 04:25:32 12° 89° (E) 04:27:15 435.800 - 435.900 CW/SSB, 435.910 FM
Uosat F 25 Oct 04:31:10 04:36:14 74° 77° (ENE) 04:41:15 435.120 FM
Sapphire 25 Oct 04:36:03 04:39:51 19° 231° (SW) 04:43:40 437.095 MHz 1200 baud AX-25 AFSK
PCSat 25 Oct 05:00:59 05:02:49 12° 226° (SW) 05:04:39 145.825 MHz
OPAL 25 Oct 05:15:52 05:20:21 33° 279° (W) 05:24:57 ?
PANSAT 25 Oct 05:21:45 05:22:48 11° 22° (NNE) 05:23:52 not established
STRAND 1 25 Oct 05:22:21 05:26:34 26° 112° (ESE) 05:30:48 ?
AO-40 25 Oct 05:35:01 11:36:39 48° 12° (NNE) 15:10:33 Beacon 2401.320
Hamsat 25 Oct 05:35:06 05:39:22 47° 81° (E) 05:43:32 145.90 MHz
RS-15 25 Oct 05:37:16 05:48:23 40° 134° (SE) 05:58:55 29.354 - 29.394 USB, Beacon 29.352 USB
JAS-2 25 Oct 06:05:55 06:11:07 62° 254° (WSW) 06:16:17 435.800 - 435.900 CW/SSB, 435.910 FM
Uosat F 25 Oct 06:12:40 06:14:20 12° 242° (WSW) 06:16:00 435.120 FM
AO-7 25 Oct 06:16:46 06:23:04 24° 238° (WSW) 06:29:19 29.400 - 29.500 MHz
Saudisat 1A 25 Oct 06:22:55 06:27:11 50° 65° (ENE) 06:31:29 436.775 MHz
SO-67 25 Oct 06:39:26 06:42:29 28° 83° (E) 06:45:30 435.3500 MHz FM
PANSAT 25 Oct 06:59:09 07:02:23 25° 11° (N) 07:05:37 not established
STRAND 1 25 Oct 07:01:02 07:05:34 31° 277° (W) 07:10:09 ?
Hamsat 25 Oct 07:12:44 07:14:50 13° 246° (WSW) 07:16:55 145.90 MHz
RS-15 25 Oct 07:49:45 08:01:22 61° 291° (WNW) 08:12:23 29.354 - 29.394 USB, Beacon 29.352 USB
Saudisat 1A 25 Oct 08:04:12 08:07:01 16° 228° (SW) 08:09:51 436.775 MHz
SO-67 25 Oct 08:13:27 08:15:09 13° 249° (WSW) 08:16:51 435.3500 MHz FM
MaSat-1 25 Oct 08:15:41 08:19:38 34° 118° (ESE) 08:23:44 437.345 MHz
HO-68 25 Oct 08:36:09 08:42:57 44° 80° (E) 08:49:41 435.675 MHz FM
PANSAT 25 Oct 08:38:40 08:42:08 31° 358° (N) 08:45:37 not established
UKube-1 25 Oct 08:47:25 08:49:53 15° 86° (E) 08:52:21 145.840 MHz, 145.915 MHz
Oscar 10/S400 25 Oct 09:25:07 09:54:43 11° 106° (ESE) 10:20:48 145.825 - 145.975 CW/USB, Beacon 145.810 USB
FUNcube-1 25 Oct 09:26:41 09:29:47 18° 86° (E) 09:32:52 145.950 - 145.970 MHz USB
Oscar 11 25 Oct 09:27:07 09:31:21 42° 81° (E) 09:35:30 145.825 FM, Beacon 2401.500 USB
MaSat-1 25 Oct 09:51:54 09:55:04 20° 285° (WNW) 09:58:17 437.345 MHz
KITSAT 1 25 Oct 10:05:42 10:11:48 24° 76° (ENE) 10:17:55 435.175 FM
ZACube-1 25 Oct 10:17:02 10:21:39 67° 79° (E) 10:26:15 437.345 MHz
PANSAT 25 Oct 10:18:57 10:21:51 20° 345° (NNW) 10:24:45 not established
UKube-1 25 Oct 10:22:05 10:26:13 40° 252° (WSW) 10:30:18 145.840 MHz, 145.915 MHz
HO-68 25 Oct 10:24:12 10:30:23 32° 244° (WSW) 10:36:32 435.675 MHz FM
FUNcube-1 25 Oct 11:01:58 11:06:13 38° 253° (WSW) 11:10:30 145.950 - 145.970 MHz USB
Oscar 11 25 Oct 11:04:34 11:07:07 15° 247° (WSW) 11:09:39 145.825 FM, Beacon 2401.500 USB
ISS 25 Oct 11:34:39 11:38:01 89° 222° (SW) 11:41:24 145.800 FM
JAS-1B 25 Oct 11:38:54 11:46:37 29° 120° (ESE) 11:54:37 435.800 - 435.900 CW/SSB
Sapphire 25 Oct 11:42:38 11:47:00 24° 127° (SE) 11:51:19 437.095 MHz 1200 baud AX-25 AFSK
Oscar 19 25 Oct 11:42:43 11:45:46 16° 116° (ESE) 11:48:51 437.125 CW, 437.150 USB
ZACube-1 25 Oct 11:56:19 11:57:26 11° 245° (WSW) 11:58:32 437.345 MHz
KITSAT 1 25 Oct 11:58:30 12:06:30 64° 240° (WSW) 12:14:36 435.175 FM
SO-50 25 Oct 12:04:15 12:09:05 87° 241° (WSW) 12:13:52 436.795 FM
PCSat 25 Oct 12:04:37 12:09:43 39° 122° (ESE) 12:14:46 145.825 MHz
AO-Echo 25 Oct 12:19:19 12:22:41 18° 113° (ESE) 12:26:01 ?
Oscar 16 25 Oct 12:26:23 12:31:16 44° 108° (ESE) 12:36:13 437.025 USB, Beacon 2401.1428
Uribyol 2 25 Oct 12:47:36 12:52:01 29° 111° (ESE) 12:56:28 436.500 FM
ITAMSAT 1 25 Oct 12:53:40 12:58:12 31° 111° (ESE) 13:02:46 435.822 SSB
ISS 25 Oct 13:13:30 13:15:08 13° 206° (SSW) 13:16:47 145.800 FM
Gurwin Techsat 1B 25 Oct 13:17:02 13:21:28 27° 112° (ESE) 13:25:56 435.225 FM
Oscar 19 25 Oct 13:19:31 13:24:35 56° 280° (W) 13:29:44 437.125 CW, 437.150 USB
UOSAT-12 25 Oct 13:25:12 13:29:33 53° 64° (ENE) 13:33:53 437.025 FM, 437.400 FM
Sapphire 25 Oct 13:25:27 13:30:33 42° 290° (WNW) 13:35:37 437.095 MHz 1200 baud AX-25 AFSK
JAS-1B 25 Oct 13:26:53 13:36:06 71° 282° (WNW) 13:46:07 435.800 - 435.900 CW/SSB
TMSAT-1 25 Oct 13:28:03 13:32:20 25° 112° (ESE) 13:36:39 436.925 FM
AO-7 25 Oct 13:30:55 13:34:36 14° 129° (SE) 13:38:17 29.400 - 29.500 MHz
AO-27 25 Oct 13:38:38 13:43:51 89° 104° (ESE) 13:49:08 436.795 MHz FM
PCSat 25 Oct 13:48:35 13:52:51 24° 286° (WNW) 13:57:06 145.825 MHz
SO-50 25 Oct 13:48:53 13:50:17 11° 224° (SW) 13:51:40 436.795 FM
AO-Echo 25 Oct 13:56:05 14:01:04 47° 280° (W) 14:05:57 ?
KITSAT 1 25 Oct 13:59:23 14:03:37 15° 218° (SW) 14:07:53 435.175 FM
Oscar 16 25 Oct 14:07:13 14:10:46 19° 274° (W) 14:14:23 437.025 USB, Beacon 2401.1428
Uribyol 2 25 Oct 14:26:56 14:31:22 29° 277° (W) 14:35:52 436.500 FM
ITAMSAT 1 25 Oct 14:33:16 14:37:37 27° 276° (W) 14:42:01 435.822 SSB
Saudisat 1A 25 Oct 14:53:30 14:56:30 18° 131° (SE) 14:59:29 436.775 MHz
Gurwin Techsat 1B 25 Oct 14:56:32 15:01:15 32° 277° (W) 15:06:03 435.225 FM
TMSAT-1 25 Oct 15:07:13 15:12:02 35° 277° (W) 15:16:54 436.925 FM
UOSAT-12 25 Oct 15:07:17 15:09:58 16° 228° (SW) 15:12:39 437.025 FM, 437.400 FM
AO-7 25 Oct 15:17:33 15:25:51 71° 110° (ESE) 15:34:14 29.400 - 29.500 MHz
JAS-1B 25 Oct 15:24:17 15:28:03 13° 264° (W) 15:31:56 435.800 - 435.900 CW/SSB
Uosat F 25 Oct 15:41:01 15:46:02 72° 105° (ESE) 15:51:06 435.120 FM
JAS-2 25 Oct 16:13:19 16:19:52 40° 109° (ESE) 16:25:46 435.800 - 435.900 CW/SSB, 435.910 FM
Hamsat 25 Oct 16:25:33 16:28:59 23° 110° (ESE) 16:32:27 145.90 MHz
Saudisat 1A 25 Oct 16:32:04 16:36:17 44° 295° (WNW) 16:40:26 436.775 MHz
AO-7 25 Oct 17:13:07 17:19:10 22° 275° (W) 17:25:17 29.400 - 29.500 MHz
Uosat F 25 Oct 17:24:23 17:25:15 10° 271° (W) 17:26:08 435.120 FM
OPAL 25 Oct 17:28:16 17:33:34 85° 75° (ENE) 17:38:49 ?
STRAND 1 25 Oct 17:38:41 17:39:49 11° 89° (E) 17:40:57 ?
JAS-2 25 Oct 17:58:34 18:04:50 32° 278° (W) 18:10:35 435.800 - 435.900 CW/SSB, 435.910 FM
Hamsat 25 Oct 18:01:08 18:04:46 26° 276° (W) 18:08:27 145.90 MHz
ISS 25 Oct 18:06:18 18:09:12 26° 146° (SE) 18:12:05 145.800 FM
SO-67 25 Oct 18:40:51 18:44:18 66° 280° (W) 18:47:49 435.3500 MHz FM
HO-68 25 Oct 19:02:20 19:07:48 24° 118° (ESE) 19:13:16 435.675 MHz FM
OPAL 25 Oct 19:10:11 19:11:40 11° 239° (WSW) 19:13:09 ?
STRAND 1 25 Oct 19:14:19 19:19:27 72° 255° (WSW) 19:24:33 ?
ISS 25 Oct 19:42:56 19:45:51 27° 311° (NW) 19:48:45 145.800 FM
KITSAT 1 25 Oct 19:55:38 20:03:05 37° 127° (SE) 20:10:26 435.175 FM
RS-15 25 Oct 19:57:01 20:06:56 31° 77° (ENE) 20:16:59 29.354 - 29.394 USB, Beacon 29.352 USB
Oscar 11 25 Oct 20:19:27 20:22:51 23° 111° (ESE) 20:26:17 145.825 FM, Beacon 2401.500 USB
SO-50 25 Oct 20:39:38 20:43:42 32° 126° (SE) 20:47:41 436.795 FM
HO-68 25 Oct 20:47:52 20:54:56 60° 282° (WNW) 21:02:03 435.675 MHz FM
ZACube-1 25 Oct 21:10:41 21:14:28 33° 108° (ESE) 21:18:21 437.345 MHz
UKube-1 25 Oct 21:13:42 21:18:04 72° 282° (WNW) 21:22:29 145.840 MHz, 145.915 MHz
KITSAT 1 25 Oct 21:50:54 21:58:33 46° 289° (WNW) 22:06:09 435.175 FM
FUNcube-1 25 Oct 21:54:44 21:58:54 69° 281° (W) 22:03:12 145.950 - 145.970 MHz USB
Oscar 11 25 Oct 21:55:10 21:58:51 27° 276° (W) 22:02:36 145.825 FM, Beacon 2401.500 USB
UOSAT-12 25 Oct 21:58:26 22:01:41 20° 130° (SE) 22:04:55 437.025 FM, 437.400 FM
RS-15 25 Oct 22:06:22 22:18:25 69° 238° (WSW) 22:30:46 29.354 - 29.394 USB, Beacon 29.352 USB
SO-50 25 Oct 22:20:39 22:24:00 21° 290° (WNW) 22:27:19 436.795 FM
ZACube-1 25 Oct 22:48:19 22:50:57 16° 273° (W) 22:53:39 437.345 MHz
MaSat-1 25 Oct 23:26:30 23:28:40 20° 239° (WSW) 23:31:04 437.345 MHz
UOSAT-12 25 Oct 23:37:47 23:41:55 39° 294° (WNW) 23:46:05 437.025 FM, 437.400 FM
Oscar 10/S400 25 Oct 23:53:22 00:20:37 16° 304° (NW) 00:34:17 145.825 - 145.975 CW/USB, Beacon 145.810 USB
RS-15 26 Oct 00:24:50 00:33:45 22° 211° (SSW) 00:42:44 29.354 - 29.394 USB, Beacon 29.352 USB
Oscar 16 26 Oct 00:42:15 00:46:08 21° 86° (E) 00:49:58 437.025 USB, Beacon 2401.1428
Uribyol 2 26 Oct 01:05:10 01:07:33 13° 88° (E) 01:09:55 436.500 FM
ITAMSAT 1 26 Oct 01:11:12 01:13:56 14° 88° (E) 01:16:38 435.822 SSB
JAS-1B 26 Oct 01:19:02 01:27:14 49° 83° (E) 01:34:02 435.800 - 435.900 CW/SSB
Oscar 19 26 Oct 01:34:25 01:39:41 69° 78° (ENE) 01:44:52 437.125 CW, 437.150 USB
Gurwin Techsat 1B 26 Oct 01:37:52 01:40:30 14° 88° (E) 01:43:06 435.225 FM
TMSAT-1 26 Oct 01:48:44 01:50:55 12° 89° (E) 01:53:04 436.925 FM
AO-27 26 Oct 01:55:18 02:00:16 42° 81° (E) 02:05:11 436.795 MHz FM
AO-Echo 26 Oct 02:06:35 02:11:21 73° 78° (ENE) 02:16:04 ?
Oscar 16 26 Oct 02:20:40 02:25:35 41° 251° (WSW) 02:30:26 437.025 USB, Beacon 2401.1428
Sapphire 26 Oct 02:20:41 02:25:42 40° 70° (ENE) 02:30:44 437.095 MHz 1200 baud AX-25 AFSK
Uribyol 2 26 Oct 02:42:11 02:47:22 62° 254° (WSW) 02:52:31 436.500 FM
PCSat 26 Oct 02:42:38 02:48:00 71° 66° (ENE) 02:53:25 145.825 MHz
RS-15 26 Oct 02:47:48 02:53:21 14° 174° (S) 02:58:50 29.354 - 29.394 USB, Beacon 29.352 USB
ITAMSAT 1 26 Oct 02:48:36 02:53:44 58° 253° (WSW) 02:58:50 435.822 SSB
OPAL 26 Oct 03:05:24 03:06:54 11° 120° (ESE) 03:08:25 ?
